Preview of NWS' New Version of Forecast
This preview is not operational and should not be used for support decisions.

Regional Weather Roundup (RWR)

Issued by National Weather Service (NWS)

                            
000
ASUS44 KJAN 150810
RWRMS 

MISSISSIPPI HOURLY WEATHER ROUNDUP
NATIONAL WEATHER SERVICE JACKSON MS
300 AM CDT SUN SEP 15 2019

NOTE: "FAIR: INDICATES FEW OR NO CLOUDS BELOW 12,000 FEET WITH NO
SIGNIFICANT WEATHER AND/OR OBSTRUCTIONS TO VISIBILITY.

MSZ001>002-007>008-010>013-018>021-025>028-034>036-150900-
NORTHWEST MISSISSIPPI
  
CITY           SKY/WX    TMP DP  RH WIND       PRES   REMARKS
BATESVILLE       N/A     72  70  94 CALM      30.10F                  
CLARKSDALE       N/A     73  73 100 N7        30.11F                  
CLEVELAND      FAIR      74  74 100 NE3       30.10S                  
GREENWOOD      FAIR      76  70  82 N5        30.09F                  
GREENVILLE     FAIR      74  70  87 CALM      30.09F                  
OLIVE BRANCH     N/A     72  68  88 CALM      30.12F                  
OXFORD         FAIR      72  70  94 SE3       30.13F                  
TUNICA           N/A     70  68  94 NW3       30.12F                  
WINONA         FAIR      73  72  96 CALM      30.11F                  
$$

MSZ003>006-009-014>017-022>024-029>033-037>039-150900-
NORTHEAST MISSISSIPPI
  
CITY           SKY/WX    TMP DP  RH WIND       PRES   REMARKS
ABERDEEN       FAIR      70  52  52 CALM      30.12F HAZE             
COLUMBUS AFB   FAIR      75  70  85 CALM      30.10F                  
CORINTH        FOG       72  70  94 CALM      30.13F VSB 1/4          
GOLDN TRIANGLE FAIR      75  72  90 CALM      30.11F                  
STARKVILLE       N/A     73  70  88 CALM      30.12F                  
TUPELO         FAIR      75  71  87 CALM      30.12F                  
$$

MSZ040-058-150900-
CENTRAL MISSISSIPPI
  
CITY           SKY/WX    TMP DP  RH WIND       PRES   REMARKS
JACKSON INTL   FAIR      77  68  73 E6        30.08F                  
JACKSON HAWKNS FAIR      79  69  71 CALM      30.09F                  
MADISON        FAIR      75  72  88 CALM      30.10F                  
MERIDIAN KEY   FAIR      76  70  82 N5        30.09S                  
MERIDIAN NAS   FAIR      74  70  87 CALM      30.10F                  
RAYMOND        FAIR      72  72 100 CALM      30.08F                  
VICKSBURG VKS  SUNNY     73  73 100 CALM      30.07F                  
$$

MSZ059>079-150900-
SOUTH MISSISSIPPI
  
CITY           SKY/WX    TMP DP  RH WIND       PRES   REMARKS
BROOKHAVEN     FAIR      72  70  94 CALM      30.09F                  
HATTIESBURG    FAIR      72  70  93 CALM      30.07S                  
LAUREL         SUNNY     76  69  80 CALM      30.08S                  
MCCOMB         FAIR      78  68  71 N6        30.06F                  
NATCHEZ        FAIR      71  69  93 CALM      30.08F                  
PINE BELT      FAIR      74  70  87 N5        30.08S FOG              
$$

MSZ080>082-150900-
COASTAL MISSISSIPPI
  
CITY           SKY/WX    TMP DP  RH WIND       PRES   REMARKS
BILOXI         FAIR      77  72  84 NE6       30.02F                  
PASCAGOULA     FAIR      74  69  85 N5        30.03F                  
GULFPORT       FAIR      78  70  76 NE7       30.02S                  
$$

LAZ007>009-015>016-023>026-150900-
NORTHEAST LOUISIANA
  
CITY           SKY/WX    TMP DP  RH WIND       PRES   REMARKS
BASTROP        FAIR      73  73  99 CALM      30.09F                  
TALLULAH/VBURG FAIR      76  70  82 CALM      30.07F                  
VIDALIA        FAIR      73  70  91 CALM      30.06S                  
$$